[[{"header":{"parameterUnit":"m.s-1","parameterCategory":1,"la1":30.2991,"la2":30.254,"lo1":-89.0895,"lo2":-89.0444,"dx":0.0017,"dy":0.0017,"nx":28,"ny":28,"refTime":"2022-11-07T03:00:00:Z","depth":0,"parameterNumber":2,"parameterNumberName":"U-component_of_WINDS"},"data":[0,0,0,0,0,0,0,0,0,0,0,0,0,0,0,0,0,0,0,0,0,0,0,0,0,0,0,0,0,0,0,0,0,0,0,0,0,0,0,0,0,0,0,0,0,0,0,0,0,0,0,0,0,0,0,0,0,0,-0.9975,-0.9976,0,-1.0071,-1.0072,-1.0073,-1.0091,-1.009,-1.0089,-1.0088,-1.019,-1.0194,-1.0197,0,0,0,0,0,0,0,0,0,0,0,0,0,-0.981,-0.9813,-0.9975,-0.9976,-0.9977,-1.0071,-1.0072,-1.0074,-1.0091,-1.009,-1.0089,-1.0088,-1.0189,-1.0193,-1.0197,0,0,0,0,0,0,0,0,0,0,0,0,0,-0.9892,-0.9814,-0.9975,-0.9997,-1.0,-1.0071,-1.0072,-1.0074,-1.0091,-1.009,-1.0089,-1.0088,-1.0188,-1.0193,-1.0198,-1.0254,0,0,-1.0214,-1.0216,0,0,0,0,0,0,0,0,-0.9887,-0.9898,-0.9993,-0.9996,-0.9999,-1.0068,-1.0052,-1.0134,-1.0091,-1.0057,-1.0088,-1.0087,-1.0151,-1.0159,-1.018,-1.0259,-1.0263,-1.0214,-1.0217,-1.022,-1.0221,0,0,0,0,0,0,0,-0.9881,-0.9894,-1.0013,-0.9994,-0.9998,-1.0004,-1.0014,-1.0067,-1.0109,-1.006,-1.0061,-1.0072,-1.0152,-1.0175,-1.0182,-1.0265,-1.0214,-1.0219,-1.0222,-1.0224,-1.0396,-1.0397,0,0,0,0,0,0,-0.9871,-0.9889,-1.001,-1.0016,-0.9939,-1.0008,-1.0019,-1.0047,-1.0109,-1.0117,-1.0073,-1.0072,-1.0166,-1.0176,-1.0186,-1.0257,-1.022,-1.0225,-1.0227,-1.0395,-1.0396,-1.0398,0,0,0,0,0,0,-0.9868,-0.9882,-1.0006,-0.9953,-0.9969,-1.0012,-1.0043,-1.005,-1.0072,-1.0119,-1.0127,-1.0088,-1.0166,-1.0179,-1.0237,-1.026,-1.0227,-1.0232,-1.0393,-1.0395,-1.0397,-1.0398,0,0,0,0,0,0,-0.9863,-0.988,-0.9901,-0.9953,-0.9972,-1.0055,-1.0044,-1.0052,-1.008,-1.0081,-1.0135,-1.0143,-1.0166,-1.0229,-1.0242,-1.0267,-1.0236,-1.0391,-1.0394,-1.0396,-1.0396,-1.04,-1.0403,0,0,0,0,0,-0.9857,-0.9898,-0.9902,-0.9917,-0.9999,-1.0056,-1.0067,-1.0091,-1.0082,-1.0104,-1.0134,-1.0141,-1.0255,-1.0235,-1.025,-1.0276,-1.039,-1.0393,-1.0396,-1.0394,-1.0399,-1.0403,0,0,0,0,0,0,-0.9849,-0.9905,-0.9911,-0.997,-1.0008,-1.0059,-1.0087,-1.0095,-1.0138,-1.0137,-1.0166,-1.0179,-1.0236,-1.0262,-1.0238,-1.0335,-1.0322,-1.0328,-1.0316,-1.032,-1.0324,-1.0317,-1.024,0,0,0,0,0,-0.9854,-0.9895,-0.9942,-0.999,-1.0008,-1.0044,-1.007,-1.0086,-1.0127,-1.0144,-1.0178,-1.0219,-1.0264,-1.0294,-1.0338,-1.0399,-1.0412,-1.0425,-1.0429,-1.0431,-1.0437,-1.0473,-1.048,-1.0409,-1.0409,-1.0409,0,0,-0.9865,-0.9901,-0.9925,-0.9989,-1.002,-1.0063,-1.0058,-1.0103,-1.0136,-1.0151,-1.0208,-1.0235,-1.0283,-1.0343,-1.0372,-1.0367,-1.0459,-1.0435,-1.0437,-1.0442,-1.0477,-1.0484,-1.049,-1.0411,-1.0411,-1.041,0,0,-0.9908,-0.9938,-0.9982,-1.0013,-1.006,-1.0084,-1.0094,-1.0144,-1.0162,-1.022,-1.0232,-1.0272,-1.0349,-1.0382,-1.041,-1.0465,-1.0473,-1.0478,-1.0498,-1.0532,-1.0538,-1.0543,-1.0564,-1.0571,-1.0483,-1.0484,-1.0484,0,-0.9916,-0.998,-1.0003,-1.0048,-1.0077,-1.0091,-1.0136,-1.0166,-1.0225,-1.0245,-1.0238,-1.0336,-1.0369,-1.0438,-1.0451,-1.0472,-1.0487,-1.0473,-1.0535,-1.054,-1.0545,-1.0566,-1.0574,-1.0484,-1.0484,-1.0484,-1.0484,0,-0.9988,-1.0032,-1.0062,-1.0118,-1.015,-1.0195,-1.0226,-1.0256,-1.0268,-1.0293,-1.0352,-1.0392,-1.0445,-1.0463,-1.0476,-1.0534,-1.053,-1.0528,-1.0517,-1.0552,-1.0572,-1.058,-1.0485,-1.0484,-1.0484,-1.0484,0,0,-1.003,-1.0098,-1.0108,-1.0134,-1.0187,-1.0223,-1.0269,-1.0319,-1.0345,-1.0385,-1.0426,-1.049,-1.0489,-1.052,-1.0537,-1.0568,-1.0611,-1.0563,-1.0565,-1.0572,-1.0679,-1.0681,-1.069,-1.0616,-1.0617,-1.0619,-1.0676,0,-1.008,-1.0161,-1.0183,-1.0253,-1.0294,-1.0308,-1.0349,-1.0386,-1.0411,-1.0451,-1.0478,-1.0524,-1.0519,-1.0538,-1.0568,-1.0599,-1.0633,-1.0595,-1.0656,-1.0658,-1.0645,-1.07,-1.0702,-1.0754,-1.0684,-1.0685,-1.0686,0,-1.0149,-1.019,-1.0263,-1.0311,-1.033,-1.0365,-1.0414,-1.0451,-1.0495,-1.051,-1.0545,-1.0559,-1.0609,-1.0593,-1.0664,-1.0637,-1.0663,-1.0682,-1.0685,-1.0693,-1.0675,-1.0711,-1.0771,-1.078,-1.0698,-1.0697,-1.0696,0,-1.0174,-1.0247,-1.03,-1.0322,-1.0379,-1.0404,-1.0429,-1.0471,-1.0501,-1.0543,-1.0563,-1.0611,-1.0638,-1.0676,-1.0704,-1.069,-1.0772,-1.0759,-1.0789,-1.0788,-1.0807,-1.0805,-1.0874,-1.0821,-1.082,-1.082,-1.082,0,-1.0228,-1.0273,-1.0312,-1.0346,-1.0396,-1.0422,-1.0472,-1.0498,-1.0535,-1.0575,-1.059,-1.0627,-1.066,-1.0702,-1.0724,-1.078,-1.0792,-1.0807,-1.0813,-1.0807,-1.0805,-1.0826,-1.0824,-1.0822,-1.0822,-1.0822,-1.0821,0,-1.0265,-1.0293,-1.0353,-1.0401,-1.0415,-1.045,-1.0493,-1.0526,-1.055,-1.06,-1.0614,-1.0653,-1.0703,-1.0734,-1.0798,-1.0813,-1.0875,-1.0878,-1.086,-1.0863,-1.0891,-1.0889,-1.0976,-1.099,-1.0926,-1.0927,-1.0927,0,-1.0299,-1.0333,-1.0385,-1.0412,-1.0437,-1.048,-1.051,-1.0537,-1.0567,-1.0619,-1.0647,-1.0698,-1.074,-1.082,-1.0855,-1.0904,-1.091,-1.0938,-1.0918,-1.0911,-1.0913,-1.0911,-1.0916,-1.0941,-1.0942,-1.0942,-1.0943,0,-1.0356,-1.0368,-1.0409,-1.0456,-1.0491,-1.0529,-1.0567,-1.0589,-1.0622,-1.0656,-1.0707,-1.074,-1.0804,-1.0855,-1.0908,-1.0935,-1.0946,-1.0948,-1.0958,-1.0953,-1.0942,-1.095,-1.087,-1.0947,-1.0946,-1.0946,-1.0946,-1.0946,-1.0394,-1.0425,-1.0467,-1.0513,-1.0544,-1.058,-1.0614,-1.0642,-1.0684,-1.0738,-1.0752,-1.0805,-1.0849,-1.092,-1.0949,-1.0992,-1.0989,-1.1002,-1.1006,-1.101,-1.1011,-1.0933,-1.1002,-1.1002,-1.1002,-1.1002,-1.1002,0,-1.0453,-1.048,-1.0522,-1.0575,-1.0611,-1.0615,-1.0658,-1.0689,-1.0736,-1.0774,-1.0815,-1.0875,-1.0924,-1.0963,-1.1014,-1.1041,-1.1048,-1.1054,-1.1053,-1.106,-1.1011,-1.0998,-1.1048,-1.1048,-1.1048,-1.1048,-1.1048,-1.1048,-1.0489,-1.0543,-1.056,-1.063,-1.0658,-1.0709,-1.0734,-1.0767,-1.0798,-1.0863,-1.0904,-1.0928,-1.0967,-1.1021,-1.1068,-1.1078,-1.1097,-1.1103,-1.1115,-1.1068,-1.1063,-1.1058,-1.1047,-1.1107,-1.1107,-1.116,-1.1161,-1.1161]},{"header":{"parameterUnit":"m.s-1","parameterCategory":1,"la1":30.2991,"la2":30.254,"lo1":-89.0895,"lo2":-89.0444,"dx":0.0017,"dy":0.0017,"nx":28,"ny":28,"refTime":"2022-11-07T03:00:00:Z","depth":0,"parameterNumber":3,"parameterNumberName":"V-component_of_WINDS"},"data":[0,0,0,0,0,0,0,0,0,0,0,0,0,0,0,0,0,0,0,0,0,0,0,0,0,0,0,0,0,0,0,0,0,0,0,0,0,0,0,0,0,0,0,0,0,0,0,0,0,0,0,0,0,0,0,0,0,0,-2.7019,-2.7019,0,-2.6976,-2.6975,-2.6975,-2.691,-2.6908,-2.6907,-2.6906,-2.6862,-2.6862,-2.6862,0,0,0,0,0,0,0,0,0,0,0,0,0,-2.7047,-2.7047,-2.7019,-2.7019,-2.7018,-2.6976,-2.6975,-2.6974,-2.691,-2.6908,-2.6907,-2.6906,-2.6862,-2.6862,-2.6862,0,0,0,0,0,0,0,0,0,0,0,0,0,-2.7022,-2.7047,-2.7019,-2.6981,-2.6977,-2.6976,-2.6975,-2.6974,-2.691,-2.6908,-2.6907,-2.6905,-2.6862,-2.6862,-2.6862,-2.6895,0,0,-2.6861,-2.6861,0,0,0,0,0,0,0,0,-2.7024,-2.7021,-2.6987,-2.6983,-2.6979,-2.6946,-2.6969,-2.6948,-2.691,-2.6935,-2.6906,-2.6904,-2.6892,-2.6889,-2.6884,-2.6893,-2.6891,-2.6861,-2.6861,-2.6861,-2.6861,0,0,0,0,0,0,0,-2.7026,-2.7023,-2.7002,-2.6986,-2.6982,-2.6966,-2.696,-2.6964,-2.6924,-2.6933,-2.6928,-2.6924,-2.6889,-2.6885,-2.6883,-2.6891,-2.6861,-2.6861,-2.6861,-2.6861,-2.6925,-2.6926,0,0,0,0,0,0,-2.7033,-2.7025,-2.7003,-2.7001,-2.6998,-2.6967,-2.6961,-2.6958,-2.6923,-2.6916,-2.6925,-2.6921,-2.6886,-2.6883,-2.6881,-2.6918,-2.6861,-2.6861,-2.6861,-2.6923,-2.6925,-2.6927,0,0,0,0,0,0,-2.7034,-2.7032,-2.7005,-2.7011,-2.7007,-2.6968,-2.6966,-2.6959,-2.6954,-2.6918,-2.691,-2.6929,-2.6884,-2.6881,-2.6892,-2.6915,-2.6861,-2.6861,-2.6921,-2.6924,-2.6926,-2.6992,0,0,0,0,0,0,-2.7035,-2.7032,-2.7045,-2.7012,-2.7007,-2.7017,-2.6968,-2.6959,-2.6954,-2.6948,-2.6919,-2.6912,-2.6883,-2.6893,-2.6892,-2.6914,-2.6861,-2.6919,-2.6922,-2.6925,-2.6987,-2.6996,-2.7004,0,0,0,0,0,-2.7036,-2.7065,-2.7045,-2.7043,-2.7021,-2.7018,-2.7015,-2.6981,-2.6956,-2.6968,-2.6945,-2.6913,-2.6913,-2.6894,-2.6893,-2.6916,-2.6917,-2.6921,-2.6925,-2.6984,-2.6995,-2.7004,0,0,0,0,0,0,-2.7101,-2.706,-2.7038,-2.7057,-2.7042,-2.7007,-2.7021,-2.6994,-2.6985,-2.698,-2.6938,-2.6932,-2.6948,-2.6933,-2.6913,-2.6946,-2.691,-2.6914,-2.6955,-2.6965,-2.6974,-2.6977,-2.6861,0,0,0,0,0,-2.7118,-2.7119,-2.7083,-2.7103,-2.7097,-2.7061,-2.7058,-2.7033,-2.7015,-2.7009,-2.6986,-2.697,-2.6967,-2.6965,-2.696,-2.6985,-2.6977,-2.7,-2.7008,-2.7015,-2.7019,-2.7031,-2.704,-2.694,-2.694,-2.694,0,0,-2.7152,-2.713,-2.7133,-2.7116,-2.7101,-2.7103,-2.7056,-2.706,-2.7061,-2.7009,-2.7018,-2.7001,-2.6981,-2.6999,-2.7006,-2.6987,-2.7045,-2.702,-2.7026,-2.7026,-2.7036,-2.7045,-2.7054,-2.6943,-2.6942,-2.6942,0,0,-2.7216,-2.7199,-2.7214,-2.72,-2.7178,-2.7154,-2.7158,-2.7128,-2.7114,-2.7122,-2.7083,-2.7084,-2.7079,-2.7066,-2.7059,-2.7118,-2.7088,-2.7117,-2.7161,-2.7173,-2.7181,-2.7188,-2.7209,-2.7217,-2.7121,-2.7122,-2.7122,0,-2.7261,-2.7263,-2.7225,-2.7232,-2.7226,-2.7179,-2.7194,-2.7182,-2.716,-2.7157,-2.7136,-2.7128,-2.7111,-2.7125,-2.714,-2.7136,-2.7138,-2.712,-2.7183,-2.7189,-2.7195,-2.7214,-2.7222,-2.7125,-2.7125,-2.7124,-2.7124,0,-2.732,-2.7321,-2.7336,-2.7315,-2.7311,-2.7322,-2.7286,-2.7286,-2.7261,-2.724,-2.7249,-2.7227,-2.7216,-2.7217,-2.7194,-2.7229,-2.7217,-2.7191,-2.7154,-2.7209,-2.7226,-2.7234,-2.713,-2.7129,-2.7128,-2.7127,0,0,-2.7423,-2.7381,-2.7387,-2.7377,-2.735,-2.735,-2.7359,-2.7349,-2.7349,-2.7336,-2.7342,-2.7339,-2.7313,-2.7305,-2.728,-2.729,-2.7338,-2.7262,-2.7261,-2.7277,-2.7375,-2.7396,-2.7405,-2.7319,-2.732,-2.7321,-2.7377,0,-2.748,-2.7493,-2.746,-2.7481,-2.7482,-2.7437,-2.7445,-2.7429,-2.7409,-2.7407,-2.7385,-2.7383,-2.735,-2.7345,-2.7354,-2.7331,-2.7358,-2.7326,-2.7324,-2.7325,-2.7331,-2.7414,-2.7436,-2.749,-2.7384,-2.7385,-2.7386,0,-2.7549,-2.7539,-2.756,-2.7531,-2.7531,-2.7538,-2.7526,-2.7525,-2.7506,-2.749,-2.7482,-2.7452,-2.7458,-2.7423,-2.7432,-2.7411,-2.7409,-2.7397,-2.7399,-2.7397,-2.7358,-2.7415,-2.7506,-2.7514,-2.7396,-2.7395,-2.7394,0,-2.7622,-2.7613,-2.7625,-2.7618,-2.7585,-2.7591,-2.7577,-2.7557,-2.7553,-2.7542,-2.7539,-2.7529,-2.7524,-2.7518,-2.7486,-2.7463,-2.7498,-2.7461,-2.7486,-2.7487,-2.7495,-2.7495,-2.7587,-2.7494,-2.7494,-2.7494,-2.7493,0,-2.769,-2.7704,-2.7657,-2.7664,-2.7679,-2.7641,-2.7657,-2.7639,-2.7621,-2.7624,-2.7586,-2.7589,-2.7547,-2.7546,-2.7521,-2.7532,-2.753,-2.7518,-2.7511,-2.7522,-2.7523,-2.7519,-2.7514,-2.7496,-2.7495,-2.7495,-2.7494,0,-2.7773,-2.7742,-2.7752,-2.772,-2.7712,-2.7725,-2.7697,-2.7702,-2.768,-2.7684,-2.7683,-2.7648,-2.7645,-2.7612,-2.7602,-2.7586,-2.7606,-2.7592,-2.7613,-2.7608,-2.7635,-2.7633,-2.7728,-2.7738,-2.7639,-2.764,-2.7641,0,-2.7818,-2.7829,-2.7798,-2.7797,-2.7785,-2.7784,-2.778,-2.7743,-2.774,-2.7719,-2.7727,-2.7721,-2.7714,-2.7711,-2.7684,-2.7676,-2.7662,-2.7696,-2.7661,-2.767,-2.7662,-2.7662,-2.7663,-2.7703,-2.7705,-2.7706,-2.7706,0,-2.7902,-2.7886,-2.7881,-2.7871,-2.7867,-2.7857,-2.7844,-2.7846,-2.7805,-2.7804,-2.78,-2.7795,-2.7784,-2.7779,-2.7766,-2.7752,-2.7723,-2.7718,-2.7723,-2.7734,-2.7745,-2.7739,-2.7633,-2.7716,-2.7715,-2.7714,-2.7714,-2.7713,-2.7967,-2.7974,-2.7953,-2.7949,-2.7936,-2.7926,-2.7929,-2.7907,-2.7904,-2.7892,-2.7871,-2.787,-2.7851,-2.7831,-2.782,-2.7819,-2.7802,-2.7809,-2.7811,-2.7814,-2.7819,-2.7745,-2.7817,-2.7816,-2.7816,-2.7816,-2.7816,0,-2.8048,-2.8033,-2.8029,-2.8014,-2.801,-2.7983,-2.7968,-2.7967,-2.7967,-2.7952,-2.7946,-2.7942,-2.7936,-2.791,-2.7901,-2.7906,-2.7892,-2.7905,-2.7904,-2.7901,-2.7836,-2.7832,-2.7916,-2.7916,-2.7916,-2.7916,-2.7916,-2.7916,-2.809,-2.81,-2.8082,-2.8086,-2.807,-2.807,-2.8064,-2.8054,-2.8041,-2.8039,-2.8034,-2.8016,-2.7997,-2.7986,-2.798,-2.7972,-2.7971,-2.7988,-2.7976,-2.7915,-2.7906,-2.7897,-2.7893,-2.7988,-2.7988,-2.8042,-2.8042,-2.8043]}]]